This is the latest recevied weather packets stored in our database for station/object N8WJW. If no packets are shown the sender has not sent any weather packets the latest 10 day(s).
| Time | Temp. | Humidity | Pressure | Rain* | Wind** | Luminosity | Snow |
|---|---|---|---|---|---|---|---|
| 1778247791 | 10° C | 85% | 1013.6 hPa | 0 mm | - | 119 W/m² | - |
| 1778247488 | 10° C | 85% | 1013.9 hPa | 0 mm | - | 121 W/m² | - |
| 1778247186 | 10° C | 86% | 1013.7 hPa | 0 mm | - | 125 W/m² | - |
| 1778246883 | 10° C | 87% | 1013.7 hPa | 0 mm | - | 133 W/m² | - |
| 1778246581 | 10° C | 87% | 1013.9 hPa | 0 mm | - | 155 W/m² | - |
| 1778246276 | 9.44° C | 87% | 1013.7 hPa | 0 mm | - | 152 W/m² | - |
| 1778245973 | 9.44° C | 88% | 1013.9 hPa | 0 mm | - | 153 W/m² | - |
| 1778245669 | 9.44° C | 88% | 1014.2 hPa | 0 mm | - | 103 W/m² | - |
| 1778245367 | 8.89° C | 88% | 1014.1 hPa | 0 mm | - | 80 W/m² | - |
| 1778245062 | 9.44° C | 87% | 1014 hPa | 0 mm | - | 39 W/m² | - |
| 1778244759 | 9.44° C | 86% | 1014.1 hPa | 0 mm | - | 52 W/m² | - |
| 1778244457 | 9.44° C | 85% | 1014.2 hPa | 0 mm | - | 111 W/m² | - |
| 1778244154 | 9.44° C | 86% | 1013.9 hPa | 0 mm | - | 111 W/m² | - |
| 1778243852 | 9.44° C | 87% | 1013.7 hPa | 0 mm | - | 134 W/m² | - |
| 1778243550 | 8.89° C | 86% | 1013.6 hPa | 0 mm | - | 87 W/m² | - |
| 1778243245 | 8.89° C | 87% | 1013.7 hPa | 0 mm | - | 100 W/m² | - |
| 1778242943 | 8.33° C | 88% | 1013.6 hPa | 0 mm | - | 127 W/m² | - |
| 1778242640 | 8.33° C | 88% | 1013.5 hPa | 0 mm | - | 72 W/m² | - |
| 1778242339 | 8.33° C | 88% | 1013.6 hPa | 0 mm | - | 60 W/m² | - |
| 1778242035 | 7.78° C | 89% | 1013.5 hPa | 0 mm | - | 86 W/m² | - |
| 1778241734 | 7.78° C | 89% | 1013.6 hPa | 0 mm | - | 96 W/m² | - |
| 1778241431 | 7.78° C | 90% | 1013.4 hPa | 0 mm | - | 80 W/m² | - |
| 1778241128 | 7.78° C | 89% | 1013.4 hPa | 0.51 mm | - | 60 W/m² | - |
| 1778240825 | 7.78° C | 88% | 1013.2 hPa | 0.51 mm | - | 43 W/m² | - |
| 1778240522 | 7.78° C | 87% | 1013.2 hPa | 0 mm | - | 55 W/m² | - |
* Rain latest hour (hover to see other rain measurements)
** Current wind speed in m/s (hover to see current wind gust speed)